Location: Kui Tatk
(32.0384°N, 112.0812°W)
Time: 19:59:17
(UTC+00:00)

Envisat - Visible Passes

Search period start: 13 May 2021 00:00
Search period end: 23 May 2021 00:00
Orbit: 764 x 766 km, 98.1° (Epoch: 13 May)

Date Brightness Start Highest point End Pass type
(mag) Time Alt. Az. Time Alt. Az. Time Alt. Az.
15 May 6.1 11:34:40 10° ENE 11:36:09 11° E 11:37:37 10° ESE visible
17 May 5.6 11:57:50 10° NE 12:01:42 22° E 12:05:34 10° SE visible
20 May 5.7 11:46:59 10° NE 11:50:11 17° E 11:53:21 10° SE visible
